Content
SEND FEEDBACK

Daily
Averages
Monthly
Summary
United States of America

GLEN LYN, VIRGINIA


Home > North America > United States > Virginia
Elevation: 152 feet     Latitude: 37 22N     Longitude: 080 52W

WEATHER
 
SELECT A DAY
Number of Records: 213,571;   Date Range: 1/1/95 - 12/26/14
 
SHARE

PRINT THIS DATA

[ ← Previous Day ]
WEATHER ALMANAC - JANUARY 23, 2013
[ Next Day → ]
[ °C ]   °F
Weather ElementAverageHighLow
Temperature20.6 °F34 °F (11:52 pm)10.9 °F (3:52 am)
Dewpoint5.8 °F19 °F (11:52 pm)-4 °F (2:52 am)
Humidity53.1 %60 % (3:52 pm)37 % (10:52 am)
Barometer30.20 in30.31 in (9:52 am)29.99 in (11:52 pm)
Wind Speed10.3 mph17.3 mph (8:52 pm)
Wind Gust31.1 mph (9:52 pm)
Weather ElementAverage
Visibility10 mi
Wind DirectionWNW (276.8 °)

Weather ElementTotal
Precipitation---
Heating Degree Days42.6 (Base 65)
Averaged from 22 records on January 23, 2013
WEATHER CONDITIONS BREAKOUT
WIND DIRECTION BREAKOUT
WEATHER BY HOUR - JANUARY 23, 2013
[ °C ]   °F
Local TimeTemperatureDewpointHumidityBarometerVisibilityWind DirectionWind SpeedGust SpeedPrecipitationEventsConditions
2:52 AM12.0 °F-4.0 °F49 %30.27 in10.0 miWNW (290°)10.4 mphClear
3:52 AM10.9 °F-2.9 °F54 %30.27 in10.0 miWNW (290°)8.1 mphClear
4:52 AM10.9 °F-2.9 °F54 %30.27 in10.0 miWest (280°)8.1 mphClear
5:52 AM10.9 °F-2.9 °F54 %30.28 in10.0 miWest (280°)8.1 mphClear
6:52 AM10.9 °F-2.0 °F56 %30.30 in10.0 miWNW (290°)9.2 mphClear
7:52 AM10.9 °F-2.0 °F56 %30.30 in10.0 miWNW (290°)9.2 mphClear
8:52 AM12.9 °F-0.9 °F54 %30.30 in10.0 miWest (280°)13.8 mph20.7 mphClear
9:52 AM17.1 °F-0.9 °F45 %30.31 in10.0 miWNW (290°)9.2 mphClear
10:52 AM19.9 °F-2.9 °F37 %30.31 in10.0 miWest (280°)11.5 mph23.0 mphScattered Clouds
11:52 AM21.0 °F1.0 °F42 %30.27 in10.0 miWNW (290°)11.5 mph20.7 mphOvercast
12:52 PM21.9 °F3.9 °F46 %30.24 in10.0 miWest (260°)10.4 mph19.6 mphOvercast
1:52 PM21.9 °F8.1 °F55 %30.21 in9.0 miWest (280°)11.5 mph26.5 mph0.00 inSnowLight Snow
2:52 PM23.0 °F10.0 °F58 %30.19 in10.0 miWest (260°)11.5 mph20.7 mph0.00 inOvercast
3:13 PM23.0 °F10.4 °F59 %30.08 in10.0 miWest (270°)9.2 mphOvercast
3:52 PM23.0 °F10.9 °F60 %30.19 in10.0 miWNW (290°)8.1 mphOvercast
4:52 PM24.1 °F10.9 °F57 %30.17 in10.0 miWest (280°)3.5 mphOvercast
5:52 PM24.1 °F10.9 °F57 %30.15 in10.0 miWest (280°)3.5 mphOvercast
6:52 PM25.0 °F12.0 °F58 %30.12 in10.0 miWest (270°)4.6 mphOvercast
8:52 PM30.0 °F16.0 °F56 %30.06 in10.0 miWSW (250°)17.3 mph24.2 mphOvercast
9:52 PM32.0 °F17.1 °F54 %30.03 in10.0 miWest (260°)15.0 mph31.1 mphOvercast
10:52 PM33.1 °F18.0 °F54 %30.01 in10.0 miWest (270°)16.1 mph21.9 mphOvercast
11:52 PM34.0 °F19.0 °F54 %29.99 in10.0 miWest (260°)16.1 mph31.1 mphOvercast
Hourly data recorded from KBLF, located miles away from Glen Lyn, Virginia







STORIES FROM OUR PARTNERS